{"data":{"norad_id":55974,"intl_designator":"2023-039B","name":"TIANMU-1 04","alt_names":[],"object_type":"PAYLOAD","status":"ACTIVE","operator":null,"country":"PRC","launch_date":"2023-03-22","launch_site_code":"JSC","launch_vehicle":null,"mission":null,"orbit_class":"UNKNOWN","rcs_meters":null,"size_class":null,"mass_kg":null,"dimensions":null,"purposes":["earth_obs"],"wikipedia_slug":null,"has_3d_model":false,"image_url":null,"decayed_at":null,"tle_current":{"epoch":"2026-05-25T05:08:16.177632Z","epoch_age_seconds":56507,"freshness":"FRESH","line1":"1 55974U 23039B   26145.21407613  .00015217  00000+0  30187-3 0  9996","line2":"2 55974  97.5167 317.4506 0004266 157.8306 202.3128 15.47110792177292","mean_motion":15.47110792,"eccentricity":0.0004266,"inclination_deg":97.5167,"raan_deg":317.4506,"arg_perigee_deg":157.8306,"mean_anomaly_deg":202.3128,"bstar":0.00030187,"rev_number":17729,"period_min":93.076721295342,"perigee_km":422.28068393404,"apogee_km":428.08527654118,"semimajor_km":6803.3199802376,"source":"CELESTRAK","updated_at":"2026-05-25T13:38:12.253149Z"}}}